Probability
0 0 0 0 0 0 0 0 0 0 0 0 6 16 26 29 39 61 74 77 68 65 68 68 58 61 71 81 84 84 87 87 90 90 87 87 87 74 65 55 52 42 35 26
0 0 0 0 0 0 0 0 0 0 0 3 6 13 32 32 39 48 58 61 61 55 55 55 52 58 65 84 87 87 87 87 87 87 87 87 77 74 68 61 48 32 19 16
0 0 0 0 0 0 0 0 0 3 3 6 13 16 23 29 35 42 39 52 52 48 48 48 48 52 61 74 77 65 84 87 81 84 77 84 81 81 74 55 61 35 26 19
0 0 0 0 0 0 0 0 0 0 0 0 0 6 19 26 32 29 39 35 35 32 35 35 42 52 52 61 65 74 84 81 77 71 68 68 55 45 55 61 52 39 29 23
0 0 0 0 0 0 0 0 0 0 0 0 0 0 16 19 13 19 19 19 26 16 23 35 42 55 45 39 61 68 77 71 65 61 55 52 55 52 45 42 29 26 29 29
0 0 0 0 0 0 0 0 0 0 0 3 3 0 3 10 13 19 13 6 16 16 19 29 32 52 52 42 45 58 77 65 52 52 52 45 45 42 35 26 23 16 16 13
0 0 0 0 0 0 0 6 10 0 0 0 0 0 6 3 3 13 13 6 6 10 13 26 29 42 45 48 45 55 71 58 45 42 35 32 26 26 29 16 13 10 6 6
0 0 0 0 0 0 0 0 6 0 0 0 0 0 0 3 0 10 10 6 3 3 10 13 29 48 55 45 55 52 55 42 35 32 26 16 13 13 6 3 3 3 3 0
0 0 0 0 0 0 0 0 0 0 0 0 0 0 0 0 0 3 6 0 0 6 10 6 26 42 42 45 45 39 42 29 26 16 10 13 10 6 3 6 6 3 6 3
0 0 0 0 0 0 0 0 0 0 0 0 0 0 3 0 0 3 0 0 0 3 0 0 19 26 32 35 35 29 29 19 10 10 3 3 3 10 3 3 0 3 3 0
0 0 0 0 0 0 0 0 0 0 0 0 0 0 3 6 3 3 3 0 3 0 0 3 13 13 16 10 10 13 13 10 6 3 3 3 3 3 6 6 0 3 3 3
0 0 0 0 0 0 0 0 0 0 10 10 0 0 0 0 0 0 3 3 6 10 3 3 13 6 6 6 10 6 6 3 3 3 3 0 6 6 6 0 3 3 3 3
0 0 0 0 0 0 0 0 0 3 3 6 0 0 0 3 0 0 0 0 3 13 6 10 6 6 3 3 0 0 3 3 3 0 0 0 6 3 3 3 3 3 3 0
0 0 0 0 0 0 0 0 0 0 3 0 0 0 0 0 0 0 0 0 0 10 13 6 6 6 0 0 0 0 0 0 0 0 0 0 6 6 6 3 0 0 0 0
0 0 0 0 0 0 0 0 0 0 0 0 0 3 3 10 3 0 0 6 6 10 13 10 10 13 6 0 3 0 0 0 0 0 0 0 0 3 0 3 0 0 0 0
3 0 0 0 0 0 0 0 0 0 0 0 0 0 0 3 3 10 6 0 6 10 10 6 13 16 16 6 3 3 3 0 0 0 0 0 0 0 3 6 3 0 0 0
0 16 10 3 0 0 0 0 0 0 0 0 0 0 0 0 6 10 10 3 3 10 3 10 16 19 23 13 6 10 3 3 0 0 0 0 3 3 3 0 0 3 3 6
19 29 87 0 3 0 0 0 0 0 0 0 0 0 0 0 6 10 16 10 6 3 0 0 6 16 10 10 10 13 3 3 0 3 3 3 3 3 6 6 6 6 6 6
19 35 0 0 3 0 0 0 0 0 0 0 0 0 0 0 0 0 0 0 10 6 6 6 3 0 6 10 10 10 6 3 0 0 3 3 3 3 6 6 10 10 16 10
6 39 13 10 3 0 0 0 0 0 6 3 0 0 0 0 0 0 0 0 0 3 6 6 0 3 10 13 13 13 13 10 6 3 3 3 6 10 10 10 16 16 23 6
3 42 16 6 6 3 0 0 0 0 13 6 3 6 0 10 3 10 0 3 10 10 10 6 6 13 23 19 16 13 10 10 6 3 6 6 10 16 13 13 19 23 6 6
3 16 39 16 13 6 3 6 16 45 29 13 10 6 10 3 10 3 10 19 13 6 3 6 32 32 26 26 35 35 32 26 16 6 6 10 23 10 0 26 42 35 13 0
0 29 13 32 29 35 6 6 6 6 19 19 16 6 6 3 10 16 29 32 23 16 23 16 26 55 48 39 45 48 61 39 23 23 26 29 23 23 26 23 23 19 6 0
0 13 13 42 26 19 13 10 13 6 3 3 3 0 6 13 23 29 35 32 32 23 23 29 23 23 48 45 48 58 55 48 42 39 35 35 32 23 26 26 3 3 6 0
0 0 10 16 39 23 19 13 3 0 3 3 6 0 6 10 13 32 29 29 32 26 32 48 61 55 58 61 48 48 45 48 45 39 32 29 10 3 29 19 16 3 3 0
0 16 23 58 61 19 23 0 0 0 0 0 3 3 3 6 16 23 26 29 32 19 35 39 48 35 35 35 48 52 61 48 48 29 19 3 3 3 3 3 3 0 0 0
Height
5882 5882 5881 5882 5881 5880 5879 5876 5873 5871 5869 5864 5860 5856 5853 5849 5850 5854 5857 5859 5859 5860 5861 5862 5863 5864 5865 5865 5865 5865 5864 5863 5861 5860 5859 5857 5856 5855 5854 5853 5851 5850 5849 5847
5883 5883 5882 5881 5880 5878 5877 5875 5872 5870 5868 5864 5861 5857 5854 5853 5852 5854 5857 5858 5858 5860 5860 5861 5862 5863 5863 5863 5863 5863 5861 5860 5859 5857 5856 5855 5853 5851 5850 5849 5847 5846 5844 5842
5885 5884 5882 5881 5879 5878 5876 5874 5871 5870 5867 5864 5860 5857 5855 5855 5854 5854 5856 5857 5858 5858 5859 5860 5860 5861 5861 5861 5861 5860 5859 5858 5856 5854 5853 5851 5850 5848 5847 5845 5843 5842 5840 5838
5884 5883 5881 5880 5878 5877 5875 5873 5870 5868 5865 5863 5862 5859 5857 5856 5856 5855 5855 5855 5856 5856 5857 5858 5858 5859 5859 5859 5859 5858 5857 5855 5854 5852 5850 5848 5847 5845 5843 5841 5839 5837 5835 5834
5882 5880 5880 5878 5877 5875 5873 5871 5869 5866 5864 5863 5862 5860 5858 5857 5857 5855 5854 5854 5855 5855 5855 5855 5856 5857 5857 5857 5856 5856 5854 5853 5851 5849 5847 5846 5843 5842 5840 5837 5835 5833 5831 5829
5879 5878 5877 5876 5875 5873 5872 5870 5867 5863 5861 5860 5861 5861 5860 5858 5857 5856 5855 5854 5854 5854 5854 5854 5855 5855 5855 5854 5854 5853 5852 5850 5848 5846 5845 5843 5840 5838 5836 5833 5831 5829 5826 5824
5877 5874 5872 5872 5872 5871 5870 5869 5866 5862 5860 5859 5861 5862 5861 5858 5858 5856 5854 5854 5854 5853 5852 5853 5854 5853 5853 5852 5851 5850 5849 5847 5845 5844 5842 5839 5837 5835 5832 5830 5827 5824 5821 5819
5874 5870 5868 5869 5870 5870 5869 5868 5867 5865 5863 5861 5860 5861 5860 5859 5858 5857 5855 5854 5853 5852 5852 5852 5852 5851 5851 5850 5849 5847 5846 5844 5843 5841 5839 5836 5834 5831 5828 5826 5823 5820 5816 5813
5872 5870 5868 5867 5868 5868 5867 5867 5867 5865 5863 5861 5860 5860 5859 5858 5858 5857 5855 5853 5852 5851 5851 5850 5850 5849 5849 5848 5846 5845 5843 5842 5840 5838 5836 5833 5830 5827 5824 5821 5818 5814 5811 5807
5870 5869 5868 5867 5867 5865 5865 5865 5866 5864 5863 5861 5857 5856 5857 5857 5857 5856 5855 5853 5851 5850 5849 5849 5848 5847 5846 5845 5844 5842 5841 5839 5837 5835 5832 5830 5827 5824 5821 5817 5813 5809 5805 5800
5868 5867 5867 5866 5864 5863 5862 5863 5863 5863 5862 5861 5857 5857 5855 5856 5856 5855 5853 5852 5851 5850 5849 5848 5847 5845 5844 5843 5842 5840 5839 5837 5834 5832 5829 5826 5823 5820 5817 5812 5808 5804 5799 5794
5863 5864 5863 5863 5861 5860 5860 5860 5861 5861 5861 5860 5859 5860 5854 5855 5854 5853 5852 5851 5850 5849 5847 5846 5845 5844 5843 5841 5840 5838 5836 5834 5831 5829 5826 5823 5819 5816 5812 5807 5802 5797 5792 5786
5860 5860 5860 5859 5858 5856 5856 5857 5859 5859 5859 5859 5858 5858 5854 5854 5852 5851 5851 5849 5848 5847 5846 5845 5843 5842 5840 5839 5837 5835 5833 5830 5828 5825 5822 5819 5815 5811 5806 5801 5796 5790 5784 5778
5856 5856 5857 5856 5853 5852 5853 5855 5856 5857 5857 5856 5855 5853 5851 5851 5851 5850 5849 5848 5846 5845 5844 5842 5841 5840 5838 5836 5834 5831 5829 5826 5824 5821 5818 5814 5810 5805 5800 5795 5789 5783 5777 5771
5852 5853 5852 5852 5852 5851 5852 5853 5854 5854 5854 5854 5852 5850 5848 5848 5848 5847 5846 5845 5843 5842 5841 5839 5838 5836 5834 5832 5830 5828 5825 5822 5819 5816 5813 5809 5804 5799 5794 5788 5782 5776 5769 5763
5847 5849 5849 5849 5849 5849 5850 5850 5851 5851 5851 5850 5850 5849 5846 5845 5845 5844 5843 5842 5840 5838 5837 5836 5834 5832 5831 5828 5826 5824 5821 5818 5815 5811 5808 5803 5798 5793 5787 5781 5775 5768 5762 5755
5844 5844 5845 5845 5845 5845 5846 5847 5847 5846 5846 5846 5846 5844 5842 5841 5841 5840 5839 5838 5836 5834 5833 5831 5830 5828 5826 5824 5822 5819 5816 5813 5810 5806 5802 5797 5792 5787 5781 5775 5768 5761 5754 5747
5840 5840 5840 5840 5841 5841 5844 5842 5842 5842 5842 5841 5841 5839 5838 5837 5836 5835 5834 5833 5831 5830 5828 5827 5825 5823 5821 5819 5817 5814 5811 5807 5804 5800 5796 5791 5785 5780 5773 5767 5760 5753 5746 5739
5835 5835 5836 5836 5836 5836 5837 5836 5836 5836 5836 5836 5836 5835 5833 5832 5831 5829 5828 5827 5827 5825 5824 5822 5820 5818 5816 5813 5811 5808 5805 5801 5797 5793 5789 5784 5778 5772 5766 5759 5752 5745 5738 5730
5830 5830 5831 5832 5832 5832 5832 5830 5829 5831 5829 5829 5829 5829 5828 5827 5825 5824 5823 5822 5821 5820 5818 5816 5814 5812 5810 5807 5804 5801 5798 5794 5790 5786 5781 5776 5771 5765 5758 5751 5744 5737 5730 5722
5822 5823 5825 5826 5826 5827 5825 5824 5824 5825 5823 5821 5822 5823 5822 5821 5820 5819 5817 5816 5814 5813 5811 5810 5808 5806 5804 5801 5798 5795 5791 5787 5783 5778 5773 5768 5763 5756 5750 5743 5736 5729 5722 5715
5818 5819 5819 5819 5819 5821 5818 5818 5818 5817 5815 5814 5816 5817 5816 5814 5813 5812 5810 5809 5808 5806 5805 5803 5801 5799 5797 5794 5791 5788 5784 5780 5775 5770 5765 5760 5754 5748 5741 5734 5728 5721 5714 5707
5814 5815 5814 5815 5814 5812 5809 5807 5808 5809 5810 5811 5810 5810 5809 5807 5806 5805 5804 5803 5802 5800 5798 5796 5794 5791 5789 5786 5783 5780 5776 5772 5767 5762 5757 5751 5745 5739 5733 5726 5720 5713 5706 5699
5808 5807 5808 5808 5806 5804 5802 5800 5802 5804 5804 5804 5804 5804 5802 5801 5800 5798 5796 5796 5794 5792 5790 5788 5786 5783 5780 5778 5775 5771 5767 5763 5758 5753 5748 5742 5737 5731 5725 5718 5712 5705 5698 5691
5803 5802 5802 5802 5801 5799 5797 5798 5799 5798 5799 5798 5797 5796 5795 5793 5792 5791 5789 5787 5786 5784 5782 5779 5777 5774 5771 5769 5766 5762 5758 5754 5749 5744 5738 5733 5727 5721 5716 5709 5703 5696 5689 5682
5796 5796 5796 5795 5795 5793 5791 5792 5792 5790 5790 5790 5789 5788 5787 5785 5784 5783 5781 5779 5777 5775 5773 5770 5768 5765 5762 5759 5756 5752 5748 5744 5739 5734 5729 5723 5717 5711 5705 5699 5693 5687 5681 5674
Wind_Speed
9 10 10 11 11 11 10 12 14 14 14 14 14 14 12 9 6 9 10 11 12 12 13 14 14 15 16 17 17 17 17 18 18 18 19 19 19 19 20 20 20 21 21 22
10 12 11 12 10 8 9 12 14 12 12 11 11 11 11 9 3 4 7 10 11 11 11 12 13 13 15 15 16 16 17 17 17 17 18 18 19 20 20 20 21 21 22 22
9 11 13 12 9 9 10 12 13 12 11 10 8 8 8 6 3 4 6 8 9 10 10 10 11 12 13 14 14 14 15 16 17 17 17 18 19 19 20 20 20 21 22 22
10 11 12 11 10 10 11 11 11 10 10 10 10 10 8 6 6 4 5 6 7 8 9 10 11 11 12 12 13 14 15 15 16 16 16 18 19 19 20 20 21 21 22 23
10 11 12 11 12 12 11 10 8 7 8 7 7 8 8 8 8 6 5 4 5 6 7 8 8 10 11 12 12 13 14 15 16 17 18 18 19 20 20 21 22 23 23 24
9 12 12 10 12 12 10 9 9 10 8 6 6 7 9 9 9 7 6 5 5 6 6 6 7 8 10 11 12 13 14 15 16 17 18 19 20 21 21 22 23 24 25 25
13 15 14 10 9 12 10 9 12 13 12 5 7 7 9 10 10 10 7 6 6 5 5 5 7 8 10 11 13 13 14 15 16 17 18 20 21 22 23 24 25 26 27 27
17 18 13 11 10 11 10 8 9 11 12 9 6 7 10 11 10 9 8 7 6 6 6 7 8 9 11 12 13 14 14 15 17 18 20 21 22 23 24 25 26 27 28 29
16 16 14 12 13 11 9 7 8 10 10 8 5 6 9 10 11 10 10 9 8 8 8 9 9 10 11 12 13 14 16 17 18 19 20 22 23 24 25 27 28 29 30 32
13 14 13 13 14 11 8 7 7 7 8 11 9 5 9 12 13 12 12 11 10 10 10 11 12 12 13 13 14 16 17 18 20 21 22 23 23 25 26 28 30 31 32 33
13 14 13 13 13 11 9 7 7 8 8 10 12 9 11 13 15 15 14 13 12 12 12 12 13 14 15 15 16 16 18 19 20 21 22 24 25 27 28 30 31 32 33 34
14 14 13 13 12 11 11 9 9 8 7 8 11 13 13 14 17 17 16 15 14 14 14 15 14 15 16 16 17 17 18 19 20 21 23 24 26 28 30 32 33 34 35 36
15 14 12 13 15 13 8 8 8 9 9 9 12 16 15 15 17 18 18 17 16 16 16 16 16 16 16 17 18 19 19 20 21 23 24 26 28 30 32 34 35 37 38 38
14 14 13 14 13 9 6 6 8 10 11 12 14 16 14 16 18 18 17 18 18 17 17 17 17 17 17 18 19 20 21 22 23 24 25 27 30 32 34 36 37 38 39 39
13 13 13 13 11 10 10 11 11 12 13 14 15 16 17 19 21 21 20 20 19 18 18 18 18 18 18 19 20 21 22 23 24 25 27 29 32 34 36 37 38 39 40 41
14 15 14 13 11 11 12 13 14 14 14 15 16 18 21 21 22 21 20 21 20 20 19 19 18 19 19 20 21 22 23 24 25 27 28 31 33 36 38 39 40 41 42 42
16 17 15 13 12 12 12 13 14 14 14 14 16 18 20 21 22 22 21 21 21 20 20 20 20 20 20 21 22 23 24 25 26 28 30 33 35 37 39 40 42 42 43 43
18 17 15 13 12 12 12 14 14 15 16 16 17 19 21 22 22 22 21 20 20 21 21 21 22 22 22 22 23 25 26 27 28 30 32 34 36 38 40 42 43 44 44 44
18 17 15 14 13 14 14 17 16 16 16 16 17 19 21 21 21 23 22 20 20 21 21 22 23 23 24 24 25 26 27 28 30 32 35 36 38 40 42 44 44 45 44 44
20 17 16 16 16 17 19 22 20 18 18 19 18 20 21 22 21 22 24 23 23 23 22 23 24 25 25 26 27 28 29 30 32 34 36 37 39 41 44 45 45 45 45 45
20 17 16 17 17 18 22 22 23 20 20 18 18 21 22 25 25 24 25 25 25 25 24 24 25 26 26 27 28 30 31 33 35 37 38 39 42 44 45 45 45 46 45 45
19 18 19 20 20 22 24 24 27 26 23 20 22 25 26 26 26 26 26 26 25 26 26 27 28 27 28 29 30 31 33 35 37 39 40 42 43 45 46 47 47 46 46 45
23 23 23 25 26 27 28 26 27 26 24 24 24 26 27 27 26 28 28 27 27 28 28 28 29 29 30 31 32 34 35 38 41 42 42 44 45 46 47 47 47 46 46 45
24 25 25 27 28 29 29 27 25 26 25 26 27 28 29 29 28 29 29 28 28 29 30 31 31 33 34 34 34 36 39 41 42 44 45 46 46 47 47 48 48 47 46 45
28 30 28 29 30 31 32 32 30 27 28 28 28 29 29 29 29 30 31 30 30 31 32 33 34 36 37 37 37 40 42 42 44 45 46 47 48 48 48 48 48 47 46 45
29 30 30 31 31 32 33 32 31 31 31 31 30 31 31 31 31 31 32 33 34 34 35 35 36 39 40 40 42 42 43 44 45 47 49 49 49 49 49 49 49 47 46 44
Wind_Direction
22 360 356 338 319 308 308 302 303 312 322 318 318 324 324 306 255 236 245 252 258 267 270 269 275 282 285 288 291 295 298 299 302 302 301 304 305 304 306 307 305 304 304 301
356 328 329 320 317 320 314 305 309 321 328 325 319 313 329 328 301 258 258 257 262 271 272 271 276 282 282 285 291 295 299 303 305 303 305 308 309 309 310 310 309 308 307 305
306 303 310 313 317 319 312 307 310 316 324 330 328 332 335 335 339 306 277 266 266 267 269 272 277 283 286 288 293 298 304 308 311 311 312 313 314 315 315 314 313 311 310 308
286 285 300 310 309 308 306 307 312 319 322 325 339 346 350 353 350 341 305 282 271 270 268 269 275 282 287 293 299 305 311 314 316 320 321 319 318 317 317 317 316 314 312 311
283 291 303 304 304 306 303 305 305 306 298 305 333 332 342 344 338 343 328 307 291 281 272 272 281 289 295 301 307 311 315 319 321 323 324 323 321 320 319 319 318 317 314 312
279 289 289 291 299 308 308 303 305 292 292 287 327 334 340 338 334 329 323 309 295 290 286 289 296 305 311 313 316 318 319 321 323 324 324 324 323 323 322 321 320 318 316 314
288 279 272 284 302 304 316 316 322 332 344 350 356 345 338 340 342 339 332 320 313 311 310 311 313 317 318 319 322 324 325 326 327 328 328 328 327 325 323 321 320 318 316 315
287 293 293 305 309 305 309 310 318 327 335 341 350 338 338 340 341 340 333 330 330 322 323 326 326 325 323 325 326 329 331 331 332 331 330 329 328 327 325 323 321 319 317 315
276 293 302 306 309 301 292 289 297 306 320 303 290 318 332 339 340 339 339 339 341 340 339 335 332 331 329 330 332 334 334 333 333 332 331 330 329 328 327 325 323 321 318 316
279 287 297 299 300 297 289 270 269 283 311 314 292 259 306 333 336 334 336 339 340 339 339 337 336 335 335 335 335 334 334 333 332 331 330 330 329 328 327 326 324 322 319 317
273 272 274 281 286 292 294 283 269 255 251 286 309 308 308 323 325 325 330 332 333 333 332 333 333 332 332 331 330 331 331 331 331 331 330 330 330 329 328 327 325 323 320 318
266 269 264 263 264 264 266 266 267 271 267 270 291 300 303 313 317 320 324 325 326 326 324 323 325 326 325 325 325 327 327 328 329 329 329 329 329 328 328 327 326 325 323 321
271 271 268 262 261 254 255 250 256 267 268 265 270 278 286 301 306 311 315 317 316 315 313 313 316 319 320 321 322 324 325 325 326 327 328 328 328 328 329 328 328 327 325 324
275 271 266 267 284 303 321 297 272 261 265 265 267 273 284 294 298 302 306 308 307 305 306 308 310 314 317 319 320 322 323 323 324 325 326 327 328 328 328 328 328 328 327 326
274 274 267 265 280 288 288 284 277 268 266 267 271 280 286 285 290 297 302 302 302 302 303 305 308 311 314 316 318 320 320 320 321 322 324 326 328 329 329 329 329 329 328 327
279 280 272 264 262 265 268 271 270 266 267 264 264 266 270 277 285 292 297 298 298 299 300 303 305 308 311 314 316 318 318 317 317 320 322 325 327 329 330 330 330 329 328 328
277 282 277 268 259 257 260 260 264 262 261 261 261 263 269 278 285 291 294 295 296 297 299 302 305 307 310 312 314 316 317 317 317 319 322 325 327 329 330 330 330 329 329 328
281 280 277 269 264 260 268 263 263 264 262 260 263 271 276 282 287 289 292 294 296 298 300 302 304 306 308 310 312 314 316 316 317 318 321 323 324 326 328 330 330 330 329 329
275 276 276 270 264 262 256 257 257 257 257 261 261 267 275 281 288 291 294 296 296 297 298 300 302 305 307 309 311 312 314 315 316 318 320 321 323 325 328 330 330 330 330 330
270 274 277 272 266 265 262 261 262 256 253 254 260 268 275 280 286 291 296 297 297 297 297 299 302 304 305 307 310 311 312 315 316 316 318 321 323 325 327 329 330 330 330 330
266 275 278 274 267 263 262 263 270 265 258 260 265 273 275 280 286 290 293 294 294 296 297 298 299 300 302 304 307 309 310 313 315 316 318 320 322 324 326 327 328 329 329 329
269 274 278 276 269 258 259 257 260 264 264 269 272 275 277 281 284 288 289 291 291 292 296 296 296 297 299 301 304 308 310 312 314 316 317 318 320 323 325 326 327 328 328 328
265 263 265 268 268 265 262 260 262 270 274 277 280 280 283 284 286 287 288 289 290 290 291 293 295 296 299 301 303 306 310 312 313 315 316 317 319 321 322 324 325 326 326 326
260 263 263 266 271 271 271 278 279 281 281 282 282 281 282 283 284 285 286 286 287 289 290 292 294 296 297 300 302 305 308 310 312 314 315 316 318 320 321 322 323 324 325 325
257 262 264 263 266 270 272 277 281 280 281 278 277 278 280 282 283 284 285 285 286 288 288 289 292 296 299 300 301 304 306 307 310 313 315 316 316 317 319 320 321 322 323 323
257 261 265 268 272 274 276 278 279 279 278 278 279 280 280 281 283 283 283 285 286 287 289 291 294 296 298 300 302 304 306 307 309 311 313 314 315 316 317 318 320 321 321 321